DW2819 Weather Reports


Display with metric or nautical units.
time (UTC)temp
F
wind
direction
speed
MPH
gust
MPH
rain 1hr
in
rain 24hr
in
rain mn
in
humidity
%
barometer
mb
20260903143653 63 21 2.0 5.0 0.00 0.00 0.00 62 1004.8
20260903143153 63 209 2.0 5.0 0.00 0.00 0.00 61 1004.8
20260903142655 63 193 2.0 4.0 0.00 0.00 0.00 62 1004.8
20260903142154 63 272 1.0 5.0 0.00 0.00 0.00 62 1004.9
20260903140653 64 245 2.0 4.0 0.00 0.00 0.00 62 1004.9
20260903140154 64 338 2.0 5.0 0.00 0.00 0.00 64 1004.9
20260903135653 64 34 3.0 5.0 0.00 0.00 0.00 63 1004.9
20260903135154 64 6 1.0 4.0 0.00 0.00 0.00 62 1004.9
20260903134656 64 0 2.0 5.0 0.00 0.00 0.00 60 1005.0
20260903134151 64 11 2.0 7.0 0.00 0.00 0.00 61 1004.9
20260903133651 63 282 1.0 7.0 0.00 0.00 0.00 62 1004.9
20260903133150 62 172 1.0 3.0 0.00 0.00 0.00 68 1004.9
20260903132153 62 0 1.0 3.0 0.00 0.00 0.00 65 1004.9
20260903131648 63 68 1.0 3.0 0.00 0.00 0.00 65 1004.9
20260903131149 63 17 0.0 3.0 0.00 0.00 0.00 64 1004.9
20260903130645 63 24 1.0 3.0 0.00 0.00 0.00 64 1004.9
20260903130142 63 128 1.0 3.0 0.00 0.00 0.00 64 1004.9
20260903125642 63 58 1.0 3.0 0.00 0.00 0.00 63 1004.9
20260903125142 63 3 1.0 5.0 0.00 0.00 0.00 64 1004.9
20260903124633 63 333 1.0 5.0 0.00 0.00 0.00 64 1004.9
20260903123129 63 31 0.0 4.0 0.00 0.00 0.00 61 1004.9
20260903122630 64 1 1.0 5.0 0.00 0.00 0.00 59 1004.8
20260903122130 64 320 1.0 5.0 0.00 0.00 0.00 60 1004.8
20260903121630 64 1 1.0 3.0 0.00 0.00 0.00 60 1004.9
20260903121129 64 18 0.0 4.0 0.00 0.00 0.00 58 1004.8
20260903120630 65 85 2.0 5.0 0.00 0.00 0.00 55 1004.9
20260903120130 65 347 1.0 5.0 0.00 0.00 0.00 54 1004.9
20260903115631 65 1 2.0 5.0 0.00 0.00 0.00 52 1004.9
20260903115129 65 23 2.0 5.0 0.00 0.00 0.00 52 1005.0
20260903114630 65 78 2.0 5.0 0.00 0.00 0.00 56 1004.9
20260903114130 65 0 2.0 6.0 0.00 0.00 0.00 51 1005.0
20260903113131 66 354 1.0 3.0 0.00 0.00 0.00 54 1004.9
20260903112633 65 0 1.0 5.0 0.00 0.00 0.00 54 1004.9
20260903112123 65 0 2.0 5.0 0.00 0.00 0.00 53 1005.0
20260903111621 65 330 2.0 4.0 0.00 0.00 0.00 52 1004.9
20260903111118 65 327 0.0 4.0 0.00 0.00 0.00 55 1004.9
20260903110607 65 266 1.0 4.0 0.00 0.00 0.00 54 1005.0
20260903110106 65 35 1.0 6.0 0.00 0.00 0.00 55 1005.0
20260903105608 65 309 1.0 6.0 0.00 0.00 0.00 59 1005.1
20260903105107 65 285 1.0 4.0 0.00 0.00 0.00 56 1005.1
20260903104610 66 212 2.0 5.0 0.00 0.00 0.00 55 1005.1
20260903104107 66 227 2.0 5.0 0.00 0.00 0.00 52 1005.2
20260903103601 66 0 1.0 4.0 0.00 0.00 0.00 52 1005.2
20260903102603 66 44 2.0 6.0 0.00 0.00 0.00 51 1005.2
20260903102059 66 289 2.0 6.0 0.00 0.00 0.00 48 1005.1
20260903101556 67 329 2.0 7.0 0.00 0.00 0.00 54 1005.2
20260903095053 68 330 1.0 5.0 0.00 0.00 0.00 54 1005.2
20260903094053 67 142 1.0 5.0 0.00 0.00 0.00 57 1005.2
20260903093554 67 34 2.0 6.0 0.00 0.00 0.00 55 1005.2
20260903093053 67 85 2.0 6.0 0.00 0.00 0.00 56 1005.3
20260903092555 66 102 1.0 4.0 0.00 0.00 0.00 62 1005.2
20260903091555 67 44 1.0 4.0 0.00 0.00 0.00 59 1005.4
20260903091053 65 10 2.0 5.0 0.00 0.00 0.00 62 1005.5
20260903090555 65 23 2.0 5.0 0.00 0.00 0.00 58 1005.4
20260903085555 67 312 1.0 5.0 0.00 0.00 0.00 57 1005.3
20260903085055 67 259 1.0 6.0 0.00 0.00 0.00 60 1005.3
20260903084554 66 345 1.0 6.0 0.00 0.00 0.00 60 1005.4
20260903084053 67 109 2.0 5.0 0.00 0.00 0.00 62 1005.4
20260903083054 65 0 1.0 5.0 0.00 0.00 0.00 64 1005.4
20260903082600 64 7 2.0 5.0 0.00 0.00 0.00 62 1005.4
20260903082057 65 224 2.0 5.0 0.00 0.00 0.00 65 1005.4
20260903081556 66 299 2.0 3.0 0.00 0.00 0.00 59 1005.5
20260903081052 66 38 1.0 5.0 0.00 0.00 0.00 61 1005.5
20260903080547 66 274 1.0 5.0 0.00 0.00 0.00 61 1005.5
20260903080045 65 334 2.0 5.0 0.00 0.00 0.00 61 1005.5
20260903075034 65 117 2.0 4.0 0.00 0.00 0.00 69 1005.7
20260903074539 65 337 2.0 7.0 0.00 0.00 0.00 70 1005.7
20260903074035 64 49 2.0 7.0 0.00 0.00 0.00 68 1005.7
20260903073035 64 313 1.0 4.0 0.00 0.00 0.00 77 1005.7
20260903072531 63 3 1.0 6.0 0.00 0.00 0.00 73 1005.7
20260903072029 63 73 1.0 6.0 0.00 0.00 0.00 73 1005.7
20260903071525 63 355 2.0 4.0 0.00 0.00 0.00 76 1005.6
20260903071021 62 169 1.0 3.0 0.00 0.00 0.00 77 1005.8
20260903070521 62 348 1.0 3.0 0.00 0.00 0.00 76 1005.7
20260903070017 62 83 1.0 3.0 0.00 0.00 0.00 79 1005.7
20260903065016 62 0 1.0 3.0 0.00 0.00 0.00 80 1005.7
20260903064508 61 183 1.0 4.0 0.00 0.00 0.00 82 1005.8
20260903064010 61 106 1.0 4.0 0.00 0.00 0.00 79 1005.7
20260903063506 60 56 0.0 3.0 0.00 0.00 0.00 84 1005.7
20260903062956 60 42 1.0 3.0 0.00 0.00 0.00 84 1005.8
20260903062501 59 314 1.0 3.0 0.00 0.00 0.00 86 1005.7
20260903061959 59 171 0.0 2.0 0.00 0.00 0.00 87 1005.7
20260903061458 59 69 0.0 2.0 0.00 0.00 0.00 88 1005.6
20260903060957 58 102 0.0 2.0 0.00 0.00 0.00 88 1005.7
20260903060457 58 114 0.0 1.0 0.00 0.00 0.00 90 1005.8
20260903055953 58 138 0.0 1.0 0.00 0.00 0.00 90 1005.8
20260903055454 57 338 0.0 1.0 0.00 0.00 0.00 91 1005.9
20260903054954 56 94 0.0 1.0 0.00 0.00 0.00 93 1005.8
20260903054454 56 63 0.0 1.0 0.00 0.00 0.00 94 1005.9
20260903053954 55 68 0.0 0.0 0.00 0.00 0.00 95 1005.8
20260903052953 55 68 0.0 1.0 0.00 0.00 0.00 95 1005.8
20260903052455 54 54 0.0 1.0 0.00 0.00 0.00 94 1005.7
20260903051952 54 52 0.0 1.0 0.00 0.00 0.00 94 1005.8
20260903051453 54 52 0.0 1.0 0.00 0.00 0.00 94 1005.8
20260903050453 55 52 0.0 1.0 0.00 0.00 0.00 94 1005.8
20260903045952 54 52 0.0 1.0 0.00 0.00 0.00 94 1005.9
20260903045453 55 52 0.0 0.0 0.00 0.00 0.00 94 1005.8
20260903044952 55 52 0.0 1.0 0.00 0.00 0.00 94 1005.9
20260903044454 55 52 0.0 1.0 0.00 0.00 0.00 94 1005.9
20260903043952 55 47 0.0 1.0 0.00 0.00 0.00 94 1005.9
20260903043455 55 47 0.0 2.0 0.00 0.00 0.00 94 1005.8
20260903042953 55 21 0.0 2.0 0.00 0.00 0.00 94 1005.9
20260903042454 55 71 0.0 1.0 0.00 0.00 0.00 95 1005.9
20260903041953 55 71 0.0 1.0 0.00 0.00 0.00 95 1006.0
20260903041455 55 71 0.0 1.0 0.00 0.00 0.00 95 1006.0
20260903040953 55 71 0.0 1.0 0.00 0.00 0.00 95 1005.9
20260903040452 55 39 0.0 1.0 0.00 0.00 0.00 95 1005.9
20260903035950 55 35 0.0 2.0 0.00 0.00 0.00 95 1005.8
20260903035451 55 21 0.0 2.0 0.00 0.00 0.00 95 1005.9
20260903034949 55 44 0.0 2.0 0.00 0.00 0.00 95 1006.0
20260903034451 55 100 0.0 2.0 0.00 0.00 0.00 95 1006.0
20260903033442 54 35 0.0 2.0 0.00 0.00 0.00 95 1005.9
20260903032940 54 37 1.0 2.0 0.00 0.00 0.00 95 1005.9
20260903032438 54 37 0.0 0.0 0.00 0.00 0.00 94 1005.9
20260903031939 54 37 0.0 1.0 0.00 0.00 0.00 94 1005.9
20260903030938 54 85 0.0 1.0 0.00 0.00 0.00 94 1005.9
20260903030435 54 97 0.0 1.0 0.00 0.00 0.00 94 1005.9
20260903025938 54 97 0.0 2.0 0.00 0.00 0.00 94 1005.9
20260903025434 54 32 0.0 2.0 0.00 0.00 0.00 94 1005.9
20260903024933 54 79 0.0 1.0 0.00 0.00 0.00 94 1005.9
20260903024434 54 79 0.0 1.0 0.00 0.00 0.00 94 1005.9
20260903023931 54 79 0.0 0.0 0.00 0.00 0.00 94 1006.0
20260903023429 54 79 0.0 0.0 0.00 0.00 0.00 94 1005.9
20260903022930 54 79 0.0 0.0 0.00 0.00 0.00 94 1006.0
20260903022422 54 79 0.0 0.0 0.00 0.00 0.00 94 1006.0
20260903021407 54 79 0.0 0.0 0.00 0.00 0.00 94 1006.1
20260903020903 54 79 0.0 0.0 0.00 0.00 0.00 94 1006.1
20260903020403 54 79 0.0 0.0 0.00 0.00 0.00 94 1006.1
20260903015906 54 79 0.0 0.0 0.00 0.00 0.00 93 1006.1
20260903015406 54 79 0.0 1.0 0.00 0.00 0.00 93 1006.1
20260903014901 54 79 0.0 1.0 0.00 0.00 0.00 94 1006.1
20260903014400 54 96 0.0 0.0 0.00 0.00 0.00 93 1006.1
20260903013905 54 96 0.0 0.0 0.00 0.00 0.00 94 1006.1
20260903013401 54 96 0.0 0.0 0.00 0.00 0.00 94 1006.1
20260903012901 54 96 0.0 1.0 0.00 0.00 0.00 94 1006.1
20260903012401 54 96 0.0 1.0 0.00 0.00 0.00 94 1006.1
20260903011902 54 96 0.0 1.0 0.00 0.00 0.00 94 1006.1
20260903010850 54 93 0.0 0.0 0.00 0.00 0.00 93 1006.3
20260903010351 54 93 0.0 0.0 0.00 0.00 0.00 93 1006.3
20260903005852 54 93 0.0 0.0 0.00 0.00 0.00 93 1006.4
20260903004849 54 93 0.0 0.0 0.00 0.00 0.00 93 1006.4
20260903004349 54 93 0.0 0.0 0.00 0.00 0.00 93 1006.4
20260903003852 55 93 0.0 0.0 0.00 0.00 0.00 93 1006.5
20260903003347 55 93 0.0 0.0 0.00 0.00 0.00 94 1006.5
20260903002850 55 93 0.0 0.0 0.00 0.00 0.00 93 1006.6
20260903002352 55 93 0.0 0.0 0.00 0.00 0.00 94 1006.6
20260903001352 55 93 0.0 0.0 0.00 0.00 0.00 94 1006.7
20260902235852 55 110 0.0 2.0 0.00 0.00 0.00 94 1006.7
20260902234853 55 37 0.0 1.0 0.00 0.00 0.00 94 1006.8
20260902234353 55 37 0.0 1.0 0.00 0.00 0.00 94 1006.8
20260902233354 55 41 0.0 1.0 0.00 0.00 0.00 94 1006.9
20260902232352 55 75 0.0 1.0 0.00 0.00 0.00 94 1007.1
20260902231851 55 68 0.0 0.0 0.00 0.00 0.00 94 1007.1
20260902231352 55 68 0.0 0.0 0.00 0.00 0.00 94 1007.1
20260902230852 54 68 0.0 0.0 0.00 0.00 0.00 93 1007.1
20260902230353 54 68 0.0 0.0 0.00 0.00 0.00 93 1007.2
20260902225852 54 68 0.0 0.0 0.00 0.00 0.00 93 1007.1
20260902225352 54 68 0.0 0.0 0.00 0.00 0.00 93 1007.1
20260902224852 54 68 0.0 0.0 0.00 0.00 0.00 93 1007.1
20260902224351 54 68 0.0 1.0 0.00 0.00 0.00 93 1007.1
20260902223852 54 68 0.0 1.0 0.00 0.00 0.00 93 1007.2
20260902223354 54 68 0.0 1.0 0.00 0.00 0.00 93 1007.2
20260902222855 54 38 0.0 1.0 0.00 0.00 0.00 93 1007.3
20260902222353 54 38 0.0 1.0 0.00 0.00 0.00 92 1007.3
20260902221847 54 38 0.0 1.0 0.00 0.00 0.00 92 1007.3
20260902221348 54 38 0.0 1.0 0.00 0.00 0.00 92 1007.4
20260902220847 54 38 0.0 0.0 0.00 0.00 0.00 92 1007.5
20260902220348 54 38 0.0 0.0 0.00 0.00 0.00 92 1007.5
20260902215852 55 38 0.0 0.0 0.00 0.00 0.00 92 1007.5
20260902215355 55 38 0.0 0.0 0.00 0.00 0.00 92 1007.4
20260902214852 55 38 0.0 0.0 0.00 0.00 0.00 91 1007.5
20260902214353 55 38 0.0 0.0 0.00 0.00 0.00 91 1007.5
20260902213354 55 38 0.0 0.0 0.00 0.00 0.00 91 1007.6
20260902212852 56 38 0.0 0.0 0.00 0.00 0.00 91 1007.7
20260902211854 56 38 0.0 0.0 0.00 0.00 0.00 91 1007.7
20260902211352 56 38 0.0 0.0 0.00 0.00 0.00 90 1007.8
20260902210351 56 38 0.0 0.0 0.00 0.00 0.00 91 1007.7
20260902205851 57 38 0.0 1.0 0.00 0.00 0.00 90 1007.7
20260902205352 57 38 0.0 1.0 0.00 0.00 0.00 90 1007.7
20260902204852 57 38 0.0 1.0 0.00 0.00 0.00 90 1007.7
20260902204352 57 38 0.0 2.0 0.00 0.00 0.00 91 1007.9
20260902203853 57 38 0.0 2.0 0.00 0.00 0.00 91 1007.8
20260902203353 57 55 0.0 1.0 0.00 0.00 0.00 91 1007.9
20260902202852 57 51 0.0 1.0 0.00 0.00 0.00 91 1007.9
20260902202358 57 69 0.0 0.0 0.00 0.00 0.00 91 1007.9
20260902201354 57 69 0.0 2.0 0.00 0.00 0.00 91 1008.0
20260902200854 57 69 0.0 2.0 0.00 0.00 0.00 91 1008.0
20260902200351 57 41 0.0 2.0 0.00 0.00 0.00 90 1008.0
20260902195853 57 41 0.0 2.0 0.00 0.00 0.00 90 1007.9
20260902195351 58 52 0.0 2.0 0.00 0.00 0.00 91 1008.0
20260902194852 58 7 0.0 4.0 0.00 0.00 0.00 91 1008.0
20260902194353 58 357 1.0 4.0 0.00 0.00 0.00 91 1007.9
20260902193855 58 68 0.0 3.0 0.00 0.00 0.00 91 1008.0
20260902192852 58 55 0.0 2.0 0.00 0.00 0.00 92 1007.9
20260902191851 57 18 1.0 3.0 0.00 0.00 0.00 92 1008.0
20260902190852 57 76 0.0 1.0 0.00 0.00 0.00 91 1007.8
20260902190354 57 71 0.0 2.0 0.00 0.00 0.00 91 1007.8
20260902185851 57 127 0.0 2.0 0.00 0.00 0.00 91 1007.8
20260902185351 57 78 0.0 1.0 0.00 0.00 0.00 90 1007.9
20260902184351 57 54 0.0 0.0 0.00 0.00 0.00 89 1008.0
20260902183851 57 54 0.0 0.0 0.00 0.00 0.00 88 1008.0
20260902183352 57 54 0.0 0.0 0.00 0.00 0.00 88 1007.9
20260902182855 57 54 0.0 0.0 0.00 0.00 0.00 88 1008.0
20260902182351 57 54 0.0 0.0 0.00 0.00 0.00 88 1008.0
20260902181849 58 54 0.0 0.0 0.00 0.00 0.00 88 1008.0
20260902181349 58 54 0.0 0.0 0.00 0.00 0.00 87 1007.9
20260902180848 58 54 0.0 0.0 0.00 0.00 0.00 87 1008.0
20260902180348 58 54 0.0 0.0 0.00 0.00 0.00 86 1008.0
20260902175847 58 54 0.0 0.0 0.00 0.00 0.00 86 1008.0
20260902175349 58 54 0.0 0.0 0.00 0.00 0.00 85 1008.0
20260902174850 58 54 0.0 0.0 0.00 0.00 0.00 84 1008.1
20260902174348 58 54 0.0 0.0 0.00 0.00 0.00 83 1008.0
20260902173849 58 54 0.0 0.0 0.00 0.00 0.00 83 1008.0
20260902173348 59 54 0.0 0.0 0.00 0.00 0.00 82 1008.0
20260902172849 59 54 0.0 0.0 0.00 0.00 0.00 82 1007.9
20260902172351 59 54 0.0 0.0 0.00 0.00 0.00 81 1007.9
20260902171853 60 54 0.0 0.0 0.00 0.00 0.00 81 1007.9
20260902170353 60 54 0.0 0.0 0.00 0.00 0.00 79 1007.8
20260902165852 60 54 0.0 0.0 0.00 0.00 0.00 80 1007.8
20260902165354 61 54 0.0 0.0 0.00 0.00 0.00 80 1007.7
20260902164852 61 54 0.0 2.0 0.00 0.00 0.00 79 1007.7
20260902163852 61 94 0.0 1.0 0.00 0.00 0.00 78 1007.6
20260902162851 62 137 0.0 0.0 0.00 0.00 0.00 78 1007.7
20260902162352 62 137 0.0 0.0 0.00 0.00 0.00 76 1007.6
20260902161853 63 137 0.0 0.0 0.00 0.00 0.00 75 1007.6
20260902161354 63 137 0.0 0.0 0.00 0.00 0.00 75 1007.6
20260902160351 64 82 0.0 2.0 0.00 0.00 0.00 74 1007.6
20260902155855 64 202 0.0 2.0 0.00 0.00 0.00 73 1007.7
20260902155354 64 331 0.0 4.0 0.00 0.00 0.00 74 1007.6
20260902154851 64 327 1.0 4.0 0.00 0.00 0.00 71 1007.7
20260902153329 65 135 1.0 3.0 0.00 0.00 0.00 74 1007.7
20260902152828 65 223 1.0 2.0 0.00 0.00 0.00 72 1007.6
20260902152327 65 18 1.0 3.0 0.00 0.00 0.00 73 1007.7
20260902151825 65 321 0.0 3.0 0.00 0.00 0.00 74 1007.7
20260902151313 65 75 0.0 1.0 0.00 0.00 0.00 73 1007.7
20260902150812 65 193 0.0 2.0 0.00 0.00 0.00 72 1007.7
20260902150310 65 189 0.0 3.0 0.00 0.00 0.00 71 1007.8
20260902145802 65 0 0.0 3.0 0.00 0.00 0.00 71 1007.9
20260902145301 65 58 0.0 2.0 0.00 0.00 0.00 71 1007.8
20260902144809 65 89 0.0 2.0 0.00 0.00 0.00 68 1007.8
20260902144301 65 324 0.0 3.0 0.00 0.00 0.00 70 1007.8